Weather in Sakmara

Russia / Orenburg Oblast     51°59′30″N   55°19′30″E
temp.,
°C
wind,
m/s
gust,
m/s
humid.,
%
clouds,
%
prec.,
mm/h
press.,
hPa
HPBL,
m
15 may, sat
sat1523:00+20se22410 0.0 102415
02:00+18sse22435 0.0 102411
05:00+17se22435 0.0 102511
08:00+21se23425 0.0 1025121
11:00+27s33295 0.0 1025673
14:00+30s33210 0.0 10242323
17:00+30sse33200 0.0 10232604
20:00+26ese33340 0.0 102230
16 may, sun
sun1623:00+21se22360 0.0 102214
02:00+19se22410 0.0 102211
05:00+18ese22470 0.0 102311
08:00+21se34475 0.0 1023152
11:00+28sse34312 0.0 1023615
14:00+31sse342210 0.0 10223343
17:00+27e223464 0.1 102117
20:00+24wnw37424 0.1 1021136
17 may, mon
mon1723:00+21sse114224 0.1 102111
02:00+19sse11476 0.0 102111
05:00+18se115486 0.0 102111
08:00+22se244992 0.3 1022142
11:00+28s34310 0.3 1022832
14:00+31sw33205 0.0 10213438
17:00+31wsw23195 0.0 10203627
20:00+27w12301 0.0 101911
18 may, tue
tue1823:00+22ne22365 0.0 102011
02:00+19ese22450 0.0 102118
05:00+18se22537 0.0 102011
08:00+21se23515 0.0 1020156
11:00+27sse23365 0.0 1019683
14:00+31ese11225 0.0 10183245
17:00+31ne11204 0.0 10173450
20:00+27ne22324 0.0 101613
19 may, wed
wed1923:00+22ene33454 0.0 101745
02:00+21nne235040 0.0 101731
05:00+19ne22562 0.0 101722
08:00+22ene35526 0.0 1017218
11:00+27ese673995 0.0 1017950
14:00+28e573836 0.0 10171452
17:00+30ese673272 0.0 10162366
20:00+26ese6114673 0.0 1016405